Home > Weather > Owensboro > Past weeks

Flag for USA Past Weather in Owensboro, Kentucky, USA — Yesterday and Last 2 Weeks

Now
77 °F

Clear.


Feels Like: 79 °F
Forecast: 64 / 80 °F
Wind: 7 mph from Northeast

Location: Owensboro / Daviess

Current Time: Jun 28, 2016 at 10:55:00 PM

Latest Report: Jun 28, 2016 at 9:56 PM


Visibility: 10 mi

Pressure: 30.03 "Hg

Humidity: 62%

Dew Point: 63 °F

Location of OwensboroLocation

Past Weather in Owensboro — Graph

°F

Owensboro Temperature Yesterday

Maximum temperature yesterday: 86 °F (at 3:56 PM)
Minimum temperature yesterday: 73 °F (at 2:56 AM)
Average temperature yesterday: 77 °F

High & Low Weather Summary for the Past Weeks

 TemperatureHumidityPressure
High98 °F (Jun 16, 3:56 PM)100% (Jun 15, 1:59 AM)30.28 "Hg (Jun 15, 1:59 AM)
Low68 °F (Jun 16, 4:56 AM)36% (Jun 28, 2:56 PM)29.77 "Hg (Jun 16, 4:56 PM)
Average82 °F72%30.00 "Hg
* Reported Jun 13 8:56 PM — Jun 28 8:56 PM, Owensboro, Weather by CustomWeather, © 2016

Note: Actual official high and low records may vary slightly from our data, if they occured in-between our weather recording intervals... More about our weather records

Advertising

Owensboro Weather History for the Previous 24 Hours

Scroll right to see more
 ConditionsComfort  
Time TempWeatherWind HumidityBarometerVisibility
8:56 PM
Tue, Jun 28
79 °FClear.7 mph56%30.01 "Hg10 mi
7:56 PM82 °FPassing clouds.8 mph55%30.00 "Hg10 mi
6:56 PM85 °FPassing clouds.8 mph51%29.99 "Hg10 mi
5:56 PM88 °FPassing clouds.9 mph40%29.98 "Hg10 mi
4:56 PM89 °FPassing clouds.8 mph43%30.00 "Hg10 mi
3:56 PM90 °FPassing clouds.10 mph36%30.01 "Hg10 mi
2:56 PM90 °FPassing clouds.9 mph36%30.02 "Hg10 mi
1:56 PM90 °FSunny.9 mph38%30.04 "Hg10 mi
12:56 PM88 °FPassing clouds.9 mph52%30.04 "Hg10 mi
11:56 AM87 °FPassing clouds.9 mph53%30.05 "Hg10 mi
10:56 AM87 °FSunny.9 mph50%30.06 "Hg10 mi
9:56 AM85 °FSunny.7 mph57%30.07 "Hg10 mi
8:56 AM82 °FSunny.9 mph63%30.07 "Hg10 mi
7:56 AM79 °FSunny.7 mph71%30.06 "Hg10 mi
6:56 AM74 °FSunny.6 mph88%30.05 "Hg10 mi
5:56 AM70 °FSunny.No wind96%30.04 "Hg10 mi
4:56 AM70 °FClear.No wind100%30.03 "Hg10 mi
3:56 AM71 °FClear.No wind100%30.02 "Hg10 mi
2:56 AM72 °FClear.No wind96%30.03 "Hg10 mi
1:56 AM73 °FClear.No wind97%30.04 "Hg10 mi
12:56 AM73 °FClear.3 mph100%30.05 "Hg10 mi
11:56 PM
Mon, Jun 27
74 °FClear.No wind100%30.06 "Hg10 mi
10:56 PM75 °FClear.No wind97%30.05 "Hg10 mi
Weather by CustomWeather, © 2016

See weather overviewHow to use our weather pages